Theta_e
317 321 323 328 334 332 330 329 328 328 327 327 326 329 330 329 329 329 328 332 334 338 340 341 339 343 344 344 338 335 334 331 332 336 339 339 336 336 337 338 338 339 340 341 341 340 339 338 337
318 320 326 332 335 333 329 330 330 328 328 327 328 326 330 331 327 326 330 329 332 337 339 341 338 340 342 341 338 335 333 330 326 329 334 337 337 336 337 337 336 336 337 338 337 338 337 335 334
318 322 331 336 337 333 330 331 329 330 328 329 330 328 330 331 325 326 326 330 333 336 339 340 340 336 339 340 337 334 330 324 319 319 323 330 333 336 336 335 336 335 335 337 336 336 334 331 326
320 327 329 336 337 335 334 332 331 332 331 328 330 333 329 326 325 323 321 325 333 337 338 339 337 337 337 337 334 330 324 322 321 321 320 320 321 325 330 331 331 329 327 334 335 334 333 327 325
319 328 335 337 337 335 333 332 332 333 332 331 329 333 331 329 322 320 320 322 329 335 338 338 338 337 335 336 335 332 325 323 325 327 328 327 324 322 322 320 320 327 334 335 336 335 333 331 327
320 325 334 338 335 333 330 329 328 328 328 329 329 330 330 321 317 314 314 318 323 328 334 337 337 337 337 337 336 335 336 333 329 329 328 329 329 329 327 322 327 337 338 338 336 335 334 332 331
319 323 327 329 328 325 323 324 325 325 322 325 327 328 328 325 312 310 312 311 314 321 330 335 337 337 337 337 337 336 336 337 336 331 329 329 328 327 329 326 333 339 339 337 336 333 333 332 332
316 318 317 317 316 316 320 321 317 316 316 319 317 327 326 313 308 308 308 309 309 313 326 332 336 337 337 338 337 337 336 336 339 334 331 329 330 328 327 327 329 337 337 335 333 334 334 333 332
313 311 309 311 310 310 311 308 308 307 308 308 309 309 309 307 306 306 307 308 308 309 313 320 327 334 337 337 337 336 336 336 337 337 334 331 333 333 332 329 330 328 330 331 334 336 335 333 332
309 307 308 309 310 307 305 305 305 306 307 308 308 307 305 305 305 305 306 306 306 306 307 307 313 323 332 335 336 336 336 336 336 337 338 335 333 333 333 333 329 326 327 330 334 335 336 334 332
306 308 307 305 305 304 304 305 304 304 305 303 303 303 303 303 304 304 304 304 304 305 305 306 306 311 323 330 333 335 336 336 336 337 338 337 335 334 335 334 334 332 331 334 333 334 335 335 329
305 304 303 303 303 302 302 302 303 302 299 298 299 299 299 301 302 302 302 302 303 303 303 303 304 306 314 325 330 333 335 336 336 337 336 337 336 335 335 335 335 335 335 336 336 335 335 334 332
304 302 303 302 300 299 298 301 302 298 296 296 296 297 297 298 299 299 297 298 297 298 299 299 300 302 305 314 326 330 334 334 335 336 335 335 335 334 334 335 335 336 335 336 335 335 335 332 330
300 302 301 300 297 296 294 298 301 299 295 295 295 296 297 297 294 295 294 294 294 295 296 296 297 299 301 307 317 325 330 333 334 335 335 334 334 334 333 333 333 334 335 334 333 334 333 330 328
299 301 300 297 294 293 293 301 295 296 295 296 295 294 295 294 293 292 291 291 291 292 293 293 294 295 297 299 308 319 324 330 332 334 335 334 334 333 333 332 332 333 333 333 334 334 331 329 326
295 299 298 295 291 291 293 297 294 296 296 296 295 294 294 293 292 290 289 289 289 289 290 291 291 293 294 295 298 305 321 326 330 332 334 335 334 333 333 331 332 331 332 330 328 331 330 328 322
294 296 293 292 290 290 291 293 295 295 295 295 295 295 294 293 291 289 288 287 287 287 287 288 289 291 291 293 296 299 306 322 326 329 332 333 334 333 333 331 330 331 330 327 326 323 328 326 319
292 291 290 290 289 290 292 293 295 294 294 294 294 294 294 293 292 289 288 286 286 286 286 286 287 288 289 291 295 298 302 318 322 326 329 332 333 333 333 331 330 330 328 326 326 325 324 320 321
288 289 289 290 289 289 291 293 294 294 293 293 293 293 293 293 291 289 288 286 285 285 285 285 285 286 287 289 292 293 296 301 312 324 327 329 331 332 332 331 330 329 327 326 326 323 322 315 314
288 289 290 290 289 290 291 292 294 294 293 292 292 292 292 291 291 290 288 287 285 284 284 284 284 284 285 287 288 290 293 296 298 307 320 327 329 330 331 331 329 328 325 325 324 321 314 312 310
289 288 288 288 289 291 291 293 295 295 294 293 292 292 291 290 290 290 288 287 286 284 283 283 283 283 284 285 287 290 292 296 299 305 316 326 327 328 330 330 328 326 325 323 322 321 318 312 308
290 287 288 289 291 295 292 296 294 295 294 293 292 291 291 290 289 288 288 287 286 285 284 283 282 283 283 284 285 287 289 292 295 297 300 308 323 327 328 329 328 326 325 322 320 320 319 318 310
289 288 289 290 291 292 293 293 295 294 294 292 291 291 290 290 289 288 287 287 286 285 284 283 282 282 282 282 283 284 287 289 291 294 299 303 311 326 327 326 326 325 323 322 321 319 318 317 316
287 289 290 291 292 296 292 290 295 295 293 291 290 290 290 289 289 288 287 286 286 285 285 283 282 282 282 282 282 282 284 286 289 291 295 302 309 323 326 325 324 323 321 321 319 319 318 317 316
288 289 297 298 299 298 290 290 295 294 292 290 289 289 289 289 288 288 287 286 285 285 284 284 282 282 281 281 281 281 282 284 286 289 292 295 303 319 324 324 323 321 320 320 319 317 316 315 313
287 288 295 297 294 292 289 291 297 293 291 289 289 289 289 289 288 287 286 285 285 284 283 283 282 282 281 281 281 281 281 282 283 286 289 292 296 308 323 322 322 321 320 319 318 316 315 313 312
286 289 286 289 286 287 292 292 292 292 291 290 290 289 289 288 288 287 286 285 284 283 283 282 282 282 282 281 281 281 280 281 282 283 286 288 292 299 310 321 320 320 319 317 316 314 312 312 311
286 287 287 287 292 294 291 290 293 293 293 289 289 289 288 288 288 287 286 285 284 283 282 282 281 281 281 281 281 281 281 280 281 282 283 285 288 293 299 314 317 317 317 316 314 312 311 310 308
285 286 286 286 287 290 290 294 293 292 291 289 288 289 288 288 287 287 286 285 283 282 281 281 280 280 280 280 280 281 281 281 281 281 282 283 285 289 293 301 308 312 312 312 311 310 309 308 307
285 286 287 289 288 286 287 289 288 289 289 288 288 288 288 288 287 286 285 284 283 282 280 279 279 278 278 278 280 280 280 280 280 281 281 281 283 285 289 293 300 304 306 307 308 307 307 307 306
Wind_Speed
10 8 5 5 4 3 2 4 1 4 2 3 2 4 5 6 5 4 6 9 4 5 15 25 29 27 27 26 26 26 25 23 21 21 20 20 20 20 21 20 19 19 17 16 15 15 14 13 13
8 6 3 2 5 6 3 4 8 5 1 1 6 3 4 7 3 6 3 14 6 4 14 21 28 28 27 26 26 26 25 25 24 24 22 21 21 21 21 21 20 19 17 15 15 15 15 13 13
4 3 3 3 3 8 3 6 4 4 5 3 5 3 6 2 2 7 15 14 8 5 13 17 25 30 29 28 27 26 25 24 24 24 25 24 23 22 22 22 22 21 18 16 16 15 15 15 16
2 3 3 6 15 13 11 4 6 11 7 2 5 9 1 6 7 14 19 17 10 8 10 18 26 29 27 27 28 28 26 25 24 24 24 24 24 24 24 23 23 21 20 18 17 17 17 16 15
1 2 6 8 14 12 7 8 10 11 11 6 6 8 9 8 12 22 25 24 16 10 8 12 21 30 30 28 27 26 26 27 26 25 24 23 24 24 24 23 22 21 20 20 19 19 18 17 16
3 2 7 13 15 7 3 5 8 9 9 8 6 8 6 8 21 28 26 22 17 14 10 10 15 27 27 25 27 27 26 26 28 27 25 24 24 23 24 23 25 24 24 23 23 19 18 17 16
4 4 9 14 16 10 5 2 3 6 7 7 8 8 4 6 28 27 23 21 19 15 10 9 11 17 29 27 26 27 28 26 27 28 27 26 26 25 25 25 27 26 25 24 22 20 18 19 17
3 3 5 6 8 6 4 3 8 10 7 8 7 5 7 25 33 31 27 23 21 18 14 10 9 12 18 25 28 28 27 28 27 29 28 27 26 26 26 26 27 28 26 23 21 21 21 21 18
1 4 9 7 7 3 8 9 8 11 11 12 8 16 23 25 31 34 32 30 25 22 17 15 14 12 15 21 27 28 31 29 28 28 29 28 24 24 24 26 25 28 27 25 23 22 23 23 20
4 4 4 2 6 7 10 9 11 8 15 14 18 24 32 32 29 24 26 26 28 27 25 20 18 16 17 18 22 29 31 33 32 29 25 27 25 24 25 25 29 28 27 26 25 24 25 27 22
3 4 1 4 8 13 12 10 12 11 9 20 21 22 24 25 24 24 24 25 25 27 26 25 25 20 18 19 19 24 28 34 36 32 29 27 26 25 26 25 26 26 27 22 23 26 29 30 20
4 1 4 6 12 12 12 12 12 14 11 19 20 23 26 23 25 27 28 31 33 32 30 30 29 24 20 20 20 23 25 28 33 36 35 31 30 29 27 27 26 27 26 26 28 31 32 30 22
2 3 6 10 10 11 12 13 4 11 22 22 24 24 22 23 29 28 28 28 31 33 32 32 30 27 23 20 22 23 25 27 32 33 35 39 34 32 29 28 27 27 27 30 33 33 32 26 21
2 4 6 7 15 10 17 12 1 16 24 20 22 22 21 23 25 29 31 31 31 32 33 33 31 29 27 22 21 25 25 28 29 31 34 40 37 34 33 33 30 30 31 33 33 35 31 26 24
2 2 2 13 19 9 20 9 14 24 18 18 17 19 20 25 27 25 26 29 30 30 31 32 32 30 29 26 20 22 27 27 29 30 34 37 40 37 35 35 33 32 32 34 35 34 31 28 24
3 3 2 10 15 8 15 2 22 22 20 22 21 17 17 20 26 28 29 28 29 29 31 30 30 30 30 28 26 22 24 28 29 29 33 38 40 42 38 35 38 34 31 30 28 34 36 31 24
9 2 6 6 11 14 10 6 14 15 17 19 19 19 17 18 25 30 31 31 29 28 29 31 30 30 32 30 26 25 24 27 29 30 31 35 40 41 40 37 37 35 31 30 28 27 37 35 27
3 3 3 6 8 13 7 6 9 14 16 17 18 20 20 20 22 28 30 31 31 29 28 29 29 29 31 29 26 24 22 22 27 30 32 32 37 41 44 39 37 36 35 30 29 32 34 28 33
1 2 7 4 1 12 4 1 1 9 14 17 17 18 21 22 23 27 30 30 32 31 32 30 32 31 31 29 29 29 26 25 26 27 31 35 34 37 40 38 37 38 35 39 40 31 35 26 30
1 3 7 5 3 7 4 6 4 1 8 11 14 16 18 22 24 29 32 33 32 32 33 34 32 30 29 26 28 25 29 27 33 37 29 33 35 37 41 41 41 45 36 36 38 36 23 18 31
3 6 7 5 11 1 10 3 8 4 2 12 15 14 14 16 20 23 31 33 33 34 34 33 32 30 28 28 27 26 26 25 26 24 27 31 35 37 40 41 40 43 40 36 40 43 33 23 32
3 7 10 8 6 2 6 3 8 5 5 11 15 15 15 18 18 22 27 30 31 34 33 32 31 31 28 28 28 28 26 27 28 32 35 39 34 36 39 43 45 46 45 38 41 43 41 31 23
3 14 7 3 3 3 1 3 4 3 5 11 14 14 15 15 16 17 24 26 27 30 33 33 32 30 29 28 26 28 28 28 30 31 34 35 37 37 37 42 44 46 45 42 44 41 38 34 30
12 2 3 3 2 3 4 4 4 3 2 6 11 13 15 15 15 19 22 24 26 29 31 33 35 33 30 29 28 27 30 34 31 31 31 31 32 34 39 41 42 43 42 41 42 44 45 40 34
9 1 1 2 2 3 5 6 7 7 6 3 8 11 13 13 14 15 20 23 26 28 30 31 34 35 33 31 30 29 30 33 31 30 29 32 31 32 32 40 37 37 40 40 41 39 38 39 38
6 4 3 4 3 4 3 6 3 8 6 2 4 6 9 12 12 14 18 20 22 25 27 29 31 33 36 33 31 30 30 31 31 31 31 29 30 33 35 38 38 37 39 39 40 38 39 38 38
2 3 2 2 2 3 4 5 10 9 9 5 4 8 9 11 11 13 16 18 19 21 24 26 28 29 32 33 32 31 32 33 34 36 33 30 31 28 27 37 38 39 40 38 37 36 36 35 36
2 6 1 2 2 5 4 8 9 11 12 7 5 6 7 8 10 10 13 15 16 17 18 21 24 26 28 31 32 32 32 34 35 35 36 36 35 31 26 17 31 33 37 37 37 32 33 33 32
4 3 2 1 2 3 5 6 5 10 10 8 5 5 6 7 8 9 12 12 12 14 16 18 21 25 28 29 31 32 34 35 35 36 37 37 37 36 31 15 10 20 25 29 31 28 29 31 30
0 3 5 3 4 4 3 10 3 8 8 9 7 9 7 8 8 8 10 11 13 14 15 17 19 20 22 25 27 29 31 34 35 37 40 39 37 38 34 27 10 6 12 16 23 22 26 28 27
Wind_Direction
328 322 315 268 250 243 204 168 232 206 216 165 20 306 352 308 294 355 340 3 310 198 191 194 188 187 189 192 196 195 194 194 190 187 186 185 184 181 180 181 180 179 176 173 170 167 170 161 158
326 309 264 292 261 249 214 211 234 250 58 233 294 171 273 316 264 295 354 360 313 237 196 196 200 194 196 200 202 202 201 200 199 195 193 191 190 188 187 188 188 186 180 174 174 176 182 178 172
330 294 266 261 244 245 258 211 282 3 7 309 303 278 308 288 184 344 357 338 311 253 203 205 213 203 201 202 205 208 207 205 203 201 200 198 197 195 195 195 194 193 191 184 179 175 176 170 170
309 203 194 244 250 252 270 309 307 305 321 336 330 286 229 341 15 5 0 356 324 292 227 212 214 210 211 213 210 210 211 207 206 204 204 204 204 204 203 204 202 203 199 184 178 173 172 172 171
5 245 249 249 262 267 293 297 298 302 306 324 331 300 290 344 41 22 9 5 356 329 285 246 233 214 214 213 216 216 214 211 210 209 207 206 204 203 203 203 198 192 189 181 182 176 174 175 177
159 279 242 257 269 256 302 309 300 298 318 352 301 299 294 73 23 357 354 358 2 348 312 263 253 226 226 227 222 218 215 214 214 213 211 208 206 205 203 198 192 194 193 187 189 190 179 176 178
190 203 265 276 281 291 328 27 335 350 344 15 327 287 323 40 351 347 347 343 343 338 321 282 255 243 230 230 233 230 223 216 217 218 215 211 208 205 203 201 196 192 193 195 199 200 197 187 188
169 220 259 257 289 312 50 60 19 9 6 347 354 290 311 343 336 336 333 331 336 345 336 314 280 256 240 234 237 236 232 228 221 221 219 214 211 209 206 204 204 202 203 203 201 203 202 200 193
263 205 254 269 295 18 25 353 12 333 300 325 310 305 320 332 335 334 335 335 339 340 338 329 311 277 250 239 235 238 236 235 229 229 224 218 211 213 211 209 210 210 211 207 207 210 211 204 205
198 217 239 338 330 338 336 356 334 334 319 321 328 330 329 332 338 338 336 332 334 336 331 332 316 293 271 246 238 235 236 234 234 229 226 221 218 214 211 213 211 213 214 214 215 219 215 207 209
156 245 2 69 11 340 328 340 337 336 341 353 352 351 351 351 356 356 351 345 342 341 338 339 335 315 281 262 247 233 231 232 230 227 223 222 221 220 215 212 217 213 216 216 217 218 216 208 205
205 97 28 353 356 358 344 326 336 39 17 343 341 341 341 341 338 338 336 338 339 342 342 340 340 332 310 278 260 246 229 227 226 226 224 221 219 215 215 215 212 210 212 213 207 214 213 209 214
245 20 347 360 22 30 344 329 325 59 358 349 354 0 356 351 348 4 5 357 351 348 344 346 345 343 329 300 272 258 244 230 228 225 224 222 220 220 215 213 212 208 208 205 208 211 206 211 220
328 308 21 40 7 48 354 319 203 4 348 355 12 7 6 9 360 358 359 351 351 345 343 343 343 342 339 324 288 270 257 247 233 228 226 224 222 220 221 219 216 212 210 210 212 209 212 217 226
345 260 160 31 358 27 333 135 26 350 1 22 24 8 4 3 3 1 356 348 346 343 339 341 340 338 337 332 313 282 264 251 246 235 228 225 222 221 220 217 218 215 210 212 213 211 214 218 223
51 125 6 35 19 4 346 64 10 12 19 23 24 23 12 3 357 356 355 350 345 342 342 339 339 337 335 330 322 302 275 259 247 242 232 228 225 222 221 217 216 214 207 204 203 206 212 219 218
34 20 360 337 30 349 15 27 11 18 28 21 15 16 14 8 4 356 352 350 347 343 341 340 341 339 336 330 323 312 290 268 257 244 237 232 227 223 220 219 218 214 206 203 203 204 210 211 208
18 7 320 306 356 1 39 68 33 20 28 30 14 4 4 7 3 356 352 351 348 347 344 340 340 340 338 334 328 321 308 277 261 255 242 236 232 224 219 218 216 212 205 206 203 206 209 207 210
54 316 320 343 108 334 17 96 81 30 27 19 15 6 357 358 356 357 356 354 351 351 348 347 342 341 342 339 335 330 317 306 292 268 254 241 234 228 223 216 214 212 207 209 212 203 205 201 205
67 340 15 294 314 329 332 300 188 139 44 29 15 9 2 350 351 356 356 356 356 352 349 346 343 340 340 336 327 318 309 301 293 280 280 252 237 229 223 218 211 212 208 208 206 200 194 194 194
51 19 347 311 315 300 306 211 218 211 297 8 15 10 3 359 349 348 353 355 354 353 350 346 342 340 340 338 331 325 317 311 307 299 289 263 244 231 222 216 213 211 210 208 204 204 198 190 197
19 2 323 314 322 4 350 302 227 247 312 356 2 5 360 354 350 346 349 352 354 351 347 347 344 342 342 343 338 332 322 315 310 304 297 283 269 237 221 218 215 214 213 210 208 207 206 200 193
328 331 305 297 253 296 48 273 158 232 270 350 356 356 355 354 349 346 346 346 349 351 350 348 346 345 345 346 345 336 326 318 313 308 302 291 284 239 226 221 216 212 211 210 208 207 205 205 202
317 323 154 177 217 242 131 3 238 219 224 334 347 353 354 353 351 350 346 348 349 351 352 352 349 347 347 346 347 343 333 327 321 317 311 301 282 257 225 225 219 212 210 209 208 209 206 206 207
352 214 220 244 253 308 155 292 279 183 175 336 336 338 347 351 350 350 351 350 349 351 351 352 351 350 348 348 348 346 340 332 325 320 317 311 293 275 222 223 220 212 212 210 211 207 208 204 203
11 359 26 293 292 309 268 231 309 180 182 277 301 310 338 352 350 349 350 349 349 349 352 352 353 352 351 349 349 348 346 339 331 325 322 317 309 316 225 220 215 214 216 213 210 209 210 208 208
43 60 38 96 64 282 256 265 259 199 222 242 301 342 337 341 345 344 346 349 350 350 353 353 354 354 354 351 351 352 349 347 339 334 331 332 330 321 295 217 215 213 217 214 212 208 208 208 208
6 142 168 86 299 280 248 279 265 214 229 247 296 309 320 325 334 336 340 342 346 348 349 353 357 355 358 353 356 352 351 352 350 344 340 342 342 342 332 238 216 210 212 217 213 209 209 205 206
155 174 116 41 247 276 299 264 220 230 206 225 277 287 299 306 315 318 322 328 332 338 345 349 355 354 358 356 355 355 353 353 356 355 346 349 351 353 349 335 253 206 206 211 211 209 207 203 205
271 203 194 221 193 237 278 269 248 226 219 226 264 299 297 294 296 294 299 310 321 329 337 340 344 350 351 351 354 355 353 356 356 359 354 356 356 0 2 357 342 243 225 217 214 205 208 205 202